{"data":{"norad_id":58222,"epoch":"2026-05-24T23:30:57.254112Z","epoch_age_seconds":66950,"freshness":"FRESH","line1":"1 58222U 23170S   26144.97982933  .00000999  00000+0  45828-4 0  9996","line2":"2 58222  43.0030 123.6477 0001620 270.4937  89.5729 15.27580037141961","mean_motion":15.27580037,"eccentricity":0.000162,"inclination_deg":43.003,"raan_deg":123.6477,"arg_perigee_deg":270.4937,"mean_anomaly_deg":89.5729,"bstar":4.5828e-5,"rev_number":14196,"period_min":94.266746430387,"perigee_km":481.93747311873,"apogee_km":484.16049737795,"semimajor_km":6861.1859852483,"source":"CELESTRAK","updated_at":"2026-05-25T13:38:18.577400Z"}}